DELTA 2 R/B(1) (20453 NORAD) Tracking and Keplerian Element Data

This shows tracking and keplerian element data for the satellite.

Feedback or suggestion? Click here.




ElementValue
Catalog20453
NameDELTA 2 R/B(1)
Epoch Orbit50701
Epoch Day198.92446478
Epoch Year2018
RAAN63.1184
Inclination35.627
Eccentricity0.0285997
Argument of Perigee222.8597
Mean Anonmoly134.9497
Mean Motion14.84294852
Decay Rate4.16E-06
L11 20453U 90008B 18198.92446478 .00000416 00000-0 25972-4 0 9992
L22 20453 35.6270 63.1184 0285997 222.8597 134.9497 14.84294852507014

Live tracking and technical data element details for DELTA 2 R/B(1) (NORAD 20453). DELTA 2 R/B(1) can be tracked NOW for your location showing map with azimuth and elevation plus other details from your city location.

Track the satellite on the map from your city or location and see movement details for azimuth, elevation, latitude, longitude, range, height, and movement on the map or in text.







IsCatalogInMostPopularTable: catalog: 20453, numindb: 39
Update: records affected: 1



GetName: 20453 DELTA 2 R/B(1)

Hit Count: updated at: Fri, 20 Jul 2018 20:26:02 GMT